Location: Unspecified
(0.0000°N, 0.0000°E)
Time: 16:24:45
(UTC+00:00)

S-56A Canister/Altair - Pass Details

Date: 23 November 2019
Orbit: 633 x 2500 km, 38.9° (Epoch: 12 December)

Event Time Altitude Azimuth Distance (km) Brightness Sun altitude
Rises 15:00:57 0° 269° (W) 6,124 12.9 38.3°
Reaches altitude 10° 15:07:34 10° 288° (WNW) 4,930 12.4 36.8°
Maximum altitude 15:14:54 16° 321° (NW) 4,091 11.5 35.1°
Drops below altitude 10° 15:21:18 10° 355° (N) 4,165 11.2 33.7°
Sets 15:26:10 0° 16° (NNE) 4,776 11.3 32.6°
